HKE725 VTSP-VHHH

Flight info

Callsign HKE725
Flight time N/A
Altitude 33000
Route EMRIT1B EMRIT Y99 NONEL Y98 SURMA W42 TOPER A1 SANOT Y15 GUROK A202 VILAO/K0848F330 A202 ASSAD/K0846S1010 A202 SAMAS/K0719S0630 A202 SIKOU/N0456F350 V571 CANTO
Aircraft A321/M-SDE3FGHIRWY/LB1

Departure

Time 2026-04-27 15:49
Airport Phuket International Airport (VTSP)

Arrival

Time N/A
Airport Hong Kong International Airport (VHHH)
Time Latitude Longitude Altitude Speed Heading
2026-04-27 15:15 8.10716 98.30499 27 ft 0 kts 105°
2026-04-27 15:40 8.10718 98.30491 27 ft 4 kts 103°
2026-04-27 15:41 8.10722 98.30464 27 ft 4 kts 88°
2026-04-27 15:41 8.10718 98.30438 27 ft 4 kts 68°
2026-04-27 15:41 8.10713 98.30428 27 ft 0 kts 60°
2026-04-27 15:45 8.10715 98.30432 27 ft 1 kts 60°
2026-04-27 15:45 8.10729 98.30440 27 ft 3 kts 18°
2026-04-27 15:46 8.10764 98.30434 27 ft 8 kts 349°
2026-04-27 15:46 8.10818 98.30434 27 ft 8 kts 12°
2026-04-27 15:46 8.10875 98.30448 27 ft 9 kts 14°
2026-04-27 15:46 8.10933 98.30463 27 ft 9 kts 14°
2026-04-27 15:47 8.10995 98.30480 27 ft 9 kts 14°
2026-04-27 15:47 8.11061 98.30497 27 ft 10 kts 14°
2026-04-27 15:47 8.11129 98.30515 27 ft 10 kts 14°
2026-04-27 15:47 8.11199 98.30535 27 ft 11 kts 23°
2026-04-27 15:48 8.11219 98.30586 28 ft 0 kts 84°
2026-04-27 15:48 8.11228 98.30675 28 ft 44 kts 85°
2026-04-27 15:49 8.11368 98.32158 66 ft 160 kts 84°
2026-04-27 15:49 8.11480 98.33375 435 ft 173 kts 84°
2026-04-27 15:49 8.11593 98.34539 1254 ft 165 kts 85°
2026-04-27 15:49 8.11703 98.35694 1890 ft 169 kts 84°
2026-04-27 15:50 8.11821 98.36936 2182 ft 187 kts 85°
2026-04-27 15:50 8.11951 98.38324 2283 ft 211 kts 85°
2026-04-27 15:50 8.12096 98.39875 2435 ft 233 kts 84°
2026-04-27 15:50 8.12252 98.41560 2624 ft 254 kts 85°
2026-04-27 15:51 8.12420 98.43362 3104 ft 261 kts 84°
2026-04-27 15:51 8.12609 98.45364 3809 ft 262 kts 85°
2026-04-27 15:51 8.13305 98.52776 6216 ft 271 kts 85°
2026-04-27 15:51 8.14025 98.60505 8416 ft 282 kts 87°
2026-04-27 15:52 8.12792 98.68451 10433 ft 296 kts 100°
2026-04-27 15:52 8.11234 98.77443 11210 ft 351 kts 100°
2026-04-27 15:52 8.10652 98.87466 12918 ft 365 kts 89°
2026-04-27 15:52 8.11570 98.97553 14624 ft 372 kts 67°
2026-04-27 15:53 8.18238 99.05613 16236 ft 381 kts 47°
2026-04-27 15:53 8.21287 99.08894 16920 ft 383 kts 47°
2026-04-27 15:53 8.23123 99.10875 17233 ft 387 kts 47°
2026-04-27 15:53 8.24968 99.12861 17649 ft 389 kts 47°
2026-04-27 15:54 8.26830 99.14851 18032 ft 391 kts 47°
2026-04-27 15:54 8.28707 99.16850 18390 ft 393 kts 47°
2026-04-27 15:54 8.30596 99.18855 18735 ft 395 kts 47°
2026-04-27 15:54 8.32470 99.20841 19078 ft 397 kts 47°
2026-04-27 15:55 8.34377 99.22861 19428 ft 398 kts 47°
2026-04-27 15:55 8.35669 99.24231 19664 ft 399 kts 47°
2026-04-27 15:55 8.38210 99.26933 20127 ft 402 kts 47°
2026-04-27 15:55 8.40138 99.28984 20466 ft 403 kts 47°
2026-04-27 15:56 8.42115 99.30998 20804 ft 406 kts 41°
2026-04-27 15:56 8.44425 99.32645 21121 ft 409 kts 30°
2026-04-27 15:56 8.47041 99.33787 21433 ft 412 kts 18°
2026-04-27 15:56 8.49821 99.34364 21734 ft 416 kts
2026-04-27 15:57 8.56321 99.34701 22407 ft 420 kts
2026-04-27 15:57 8.68085 99.35284 23501 ft 427 kts
2026-04-27 15:57 8.80046 99.35878 24393 ft 433 kts
2026-04-27 15:57 8.92172 99.36489 25220 ft 439 kts
2026-04-27 15:58 9.04460 99.37102 26045 ft 444 kts
2026-04-27 15:58 9.08222 99.37291 26306 ft 446 kts
2026-04-27 15:58 9.11327 99.37449 26514 ft 448 kts
2026-04-27 15:58 9.14441 99.37609 26690 ft 449 kts
2026-04-27 15:59 9.17568 99.37769 26892 ft 451 kts
2026-04-27 15:59 9.20660 99.37922 27087 ft 452 kts
2026-04-27 15:59 9.23796 99.38193 27274 ft 452 kts 11°
2026-04-27 15:59 9.25872 99.38644 27401 ft 452 kts 17°